• Join FlightAware (Why Join?)
  • Login
  • US Flag GB Flag 
14:52 EDT


 

Airport Tracker/Info


-or-


 

Live Flight TrackerFlight Track Log ✈ N450S ✈ 25-Apr-2013 ✈ KBKL - KMDW

Flight Track Log - Related Links

Times and Time Zones

All times are in EDT time to prevent confusion due to time zone crossing. See the N450S flight status page for this flight to view local times or setup timezone preferences in your user account.

Time Position Orientation Groundspeed Altitude Reporting Facility
EDT Latitude Longitude Course Direction KTS MPH feet Rate Location/Type
13:48 41.5083 -81.7033 305° West 131 151 1,200  Level Cleveland Center
13:49 41.5228 -81.7314 305° West 174 200 2,000 1,200 Climbing Cleveland Center
13:50 41.5683 -81.7656 331° Northwest 213 245 3,200 1,500 Climbing Cleveland Center
13:51 41.5736 -81.8350 276° West 141 162 5,300 1,920 Climbing Cleveland Center
13:52 41.5586 -81.8706 241° Southwest 139 160 7,100 1,920 Climbing Cleveland Center
13:53 41.5394 -81.9231 244° Southwest 137 158 9,000 900 Climbing Cleveland Center
13:54 41.5158 -81.9836 243° Southwest 169 194 9,000  Level Cleveland Center
13:55 41.4856 -82.0522 240° Southwest 204 235 9,100 900 Climbing Cleveland Center
13:56 41.4619 -82.1153 243° Southwest 208 239 10,900 1,800 Climbing Cleveland Center
13:57 41.4444 -82.1647 245° Southwest 167 192 12,700 1,500 Climbing Cleveland Center
13:58 41.4250 -82.2142 242° Southwest 151 174 14,000 1,380 Climbing Cleveland Center
13:59 41.4056 -82.2636 242° Southwest 151 174 15,500 1,440 Climbing Cleveland Center
14:00 41.3903 -82.3075 245° Southwest 151 174 16,900 900 Climbing Cleveland Center
14:01 41.3667 -82.3594 239° Southwest 157 181 17,300 540 Climbing Cleveland Center
14:02 41.3469 -82.4169 245° Southwest 172 198 18,000 300 Climbing Cleveland Center
14:03 41.3208 -82.4797 241° Southwest 182 209 18,000  Level Cleveland Center
14:04 41.3031 -82.5511 252° West 200 230 18,000  Level Cleveland Center
14:05 41.2933 -82.6283 261° West 206 237 18,000  Level Cleveland Center
14:06 41.2836 -82.7025 260° West 211 243 18,000  Level Cleveland Center
14:07 41.2694 -82.7878 258° West 216 249 18,000  Level Cleveland Center
14:08 41.2617 -82.8647 262° West 216 249 18,000  Level Cleveland Center
14:09 41.2519 -82.9392 260° West 216 249 18,000  Level Cleveland Center
14:10 41.2483 -83.0136 266° West 216 249 18,000  Level Cleveland Center
14:11 41.2739 -83.0864 295° West 209 241 18,000  Level Cleveland Center
14:12 41.2972 -83.1564 294° West 214 246 18,000  Level Cleveland Center
14:13 41.3206 -83.2292 293° West 214 246 18,000  Level Cleveland Center
14:14 41.3439 -83.3047 292° West 214 246 18,000  Level Cleveland Center
14:15 41.3672 -83.3750 294° West 214 246 18,000  Level Cleveland Center
14:16 41.3903 -83.4478 293° West 214 246 18,000  Level Cleveland Center
14:17 41.4136 -83.5208 293° West 214 246 18,000  Level Cleveland Center
14:18 41.4367 -83.5967 292° West 214 246 18,000  Level Cleveland Center
14:19 41.4514 -83.6694 285° West 214 246 18,000  Level Cleveland Center
14:20 41.4556 -83.7500 274° West 214 246 18,000  Level Cleveland Center
14:21 41.4575 -83.8278 272° West 214 246 18,000  Level Cleveland Center
14:22 41.4614 -83.9056 274° West 214 246 18,000  Level Cleveland Center
14:23 41.4633 -83.9833 272° West 214 246 18,000  Level Cleveland Center
14:24 41.4669 -84.0667 273° West 214 246 18,000  Level Cleveland Center
14:25 41.4708 -84.1444 274° West 214 246 18,000  Level Cleveland Center
14:26 41.4725 -84.2278 272° West 214 246 18,000  Level Cleveland Center
14:27 41.4783 -84.3000 276° West 219 252 18,000  Level Cleveland Center
14:28 41.4819 -84.3808 273° West 219 252 18,000  Level Cleveland Center
14:29 41.4836 -84.4611 272° West 219 252 18,000  Level Cleveland Center
14:30 41.4869 -84.5417 273° West 219 252 18,000  Level Cleveland Center
14:31 41.4906 -84.6225 273° West 219 252 18,000  Level Cleveland Center
14:32 41.4917 -84.7058 271° West 219 252 18,000  Level Cleveland Center
14:33 41.4933 -84.8008 271° West 220 253 18,000  Level Chicago Center
14:34 41.4958 -84.8828 272° West 222 255 18,000  Level Chicago Center
14:35 41.4989 -84.9808 272° West 220 253 18,000  Level Chicago Center
14:36 41.5014 -85.0622 272° West 220 253 18,000 -180 Level Chicago Center
14:37 41.5036 -85.1450 272° West 223 257 17,700 -300 Descending Chicago Center
14:38 41.5058 -85.2297 272° West 226 260 17,500 -480 Descending Chicago Center
14:39 41.5086 -85.3153 273° West 228 262 16,700 -900 Descending Chicago Center
14:40 41.5108 -85.4017 272° West 231 266 15,700 -960 Descending Chicago Center
14:41 41.5133 -85.4892 272° West 233 268 14,800 -900 Descending Chicago Center
14:42 41.5147 -85.5747 271° West 229 264 13,900 -1,020 Descending Chicago Center
14:43 41.5172 -85.6758 272° West 227 261 12,800 -1,020 Descending Chicago Center
14:44 41.5194 -85.7594 272° West 226 260 11,900 -840 Descending Chicago Center
14:45 41.5208 -85.8425 271° West 225 259 11,100 -840 Descending Chicago Center
14:46 41.5228 -85.9292 272° West 232 267 10,200 -540 Descending Chicago Center
14:47 41.5244 -86.0167 271° West 236 272 10,000 -120 Descending Chicago Center
14:48 41.5244 -86.1022 270° West 233 268 10,000  Level Chicago Center
14:50 41.5223 -86.1817 268° West  Level FlightAware Approximate
14:50 41.5233 -86.2000 268° West 221 254 10,000  Level Chicago Center
14:51 41.5231 -86.2847 270° West 227 261 9,700 -540 Descending Chicago Center
14:52 41.5228 -86.3711 270° West 232 267 9,000 -480 Descending Chicago Center
14:53 41.5231 -86.4572 270° West 233 268 8,800 -540 Descending Chicago Center
14:54 41.5217 -86.5433 269° West 234 269 7,900 -840 Descending Chicago Center
14:55 41.5214 -86.6278 270° West 230 265 7,100 -840 Descending Chicago Center
14:56 41.5214 -86.7186 270° West 231 266 6,200 -540 Descending Chicago Center
14:57 41.5194 -86.8175 269° West 224 258 6,000 -120 Descending Chicago Center
14:58 41.5189 -86.8939 269° West 212 244 6,000  Level Chicago Center
14:59 41.5167 -86.9703 268° West 207 238 6,000  Level Chicago Center
15:00 41.5158 -87.0483 269° West 211 243 6,000  Level Chicago Center
15:01 41.5172 -87.1256 271° West 210 242 6,000 -180 Level Chicago Center
15:01 41.5167 -87.1667 269° West 211 243 5,800 -840 Descending Chicago TRACON
15:02 41.5167 -87.2500 270° West 225 259 5,000 -600 Descending Chicago TRACON
15:03 41.5000 -87.3000 246° West 233 268 4,700 -420 Descending Chicago TRACON
15:04 41.5000 -87.3667 270° West 224 258 4,200 -360 Descending Chicago TRACON
15:05 41.5500 -87.4167 323° Northwest 211 243 4,000 -120 Descending Chicago TRACON
15:06 41.5750 -87.4542 312° West 208 239 4,000  Level Chicago Center
15:07 41.6119 -87.5114 311° West 186 214 4,000  Level Chicago Center
15:08 41.6439 -87.5619 310° West 180 207 4,000 -120 Level Chicago Center
15:09 41.6794 -87.6056 318° Northwest 178 205 3,800 -720 Descending Chicago Center
15:10 41.7139 -87.6536 314° West 178 205 2,600 -1,080 Descending Chicago Center
15:11 41.7500 -87.7000 316° Northwest 155 178 1,800 -900 Descending Chicago TRACON
15:12 41.7667 -87.7333 304° West 127 146 1,000 -840 Descending Chicago TRACON
15:14 41.7833 -87.7500 334° Northwest  Level FlightAware Approximate
15:21 41.7860 -87.7524 334° Northwest  Level Estimated